Overview Statistics Trail Chart Weather Telemetry Raw packets
 

This is the latest recevied weather packets stored in our database for station/object KI5PFS. If no packets are shown the sender has not sent any weather packets the latest 10 day(s).

<< 54 55 56 57 58 >>
Time Temp. Humidity Pressure Rain* Wind** Luminosity Snow
1787790604 35° C 43% 1008.5 hPa 0 mm - - -
1787790004 35° C 42% 1008.3 hPa 0 mm - - -
1787789403 36.11° C 39% 1008.3 hPa 0 mm - - -
1787788807 36.11° C 39% 1008.4 hPa 0 mm - - -
1787788203 36.11° C 38% 1008.5 hPa 0 mm - - -
1787787604 36.11° C 38% 1008.6 hPa 0 mm - - -
1787787004 37.22° C 38% 1008.5 hPa 0 mm - - -
1787786404 37.22° C 37% 1008.4 hPa 0 mm - - -
1787785804 37.78° C 35% 1008.2 hPa 0 mm - - -
1787785204 38.89° C 35% 1008.1 hPa 0 mm - - -
1787784603 37.78° C 35% 1008.2 hPa 0 mm - - -
1787784003 38.89° C 35% 1008.4 hPa 0 mm - - -
1787783404 38.89° C 36% 1008.6 hPa 0 mm - - -
1787782804 38.89° C 37% 1008.9 hPa 0 mm - - -
1787782203 37.78° C 40% 1009 hPa 0 mm - - -
1787781603 38.89° C 41% 1009.1 hPa 0 mm - - -
1787781004 38.89° C 41% 1009.3 hPa 0 mm - - -
1787780403 37.78° C 42% 1009.4 hPa 0 mm - - -
1787779808 37.78° C 42% 1009.4 hPa 0 mm - - -
1787779203 37.22° C 45% 1009.6 hPa 0 mm - - -
1787778603 36.11° C 46% 1009.8 hPa 0 mm - - -
1787778006 36.11° C 47% 1010 hPa 0 mm - - -
1787777403 36.11° C 48% 1010.2 hPa 0 mm - - -
1787776803 36.11° C 48% 1010.3 hPa 0 mm - - -
1787776203 36.11° C 48% 1010.3 hPa 0 mm - - -

* Rain latest hour (hover to see other rain measurements)
** Current wind speed in m/s (hover to see current wind gust speed)